Regional Weather Roundup
Issued by NWS

Home | Current Version | Previous Version | Text Only | Print | Product List | Glossary On
Versions: 1 2 3 4 5 6 7 8 9 10 11 12 13 14 15 16 17 18 19 20 21 22 23 24 25 26 27 28 29 30 31 32 33 34 35 36 37 38 39 40 41 42 43 44 45 46 47 48 49 50
000
ASUS43 KIND 241509
RWRIN

WEATHER ROUNDUP FOR INDIANA
NATIONAL WEATHER SERVICE INDIANAPOLIS IN
1000 AM EST MON NOV 24 2014

NOTE: "FAIR" INDICATES FEW OR NO CLOUDS BELOW 12,000 FEET WITH NO
SIGNIFICANT WEATHER AND/OR OBSTRUCTIONS TO VISIBILITY.

* - STATION DOES NOT REPORT WEATHER SUCH AS PRECIPITATION OR FOG.

+ - STATION NOT QUALITY CONTROLLED BY THE NATIONAL WEATHER SERVICE.
    USE DATA WITH CAUTION...ESPECIALLY DEWPOINT AND RELATIVE
    HUMIDITY OBSERVATIONS.

INZ001>003-010>013-019-020-241600-
NORTHWEST INDIANA

CITY           SKY/WX    TMP DP  RH WIND       PRES   REMARKS
GARY /AIRPORT/ RAIN      43  41  93 W26G40    29.15R
KNOX *+        CLOUDY    46  44  95 W25G36    29.14R
LA PORTE +     RAIN     N/A N/A N/A W20G26    29.11R
MICHIGAN CITY+ RAIN      46  46 100 W12G23    29.12R
MONTICELLO +   LGT RAIN  40  39  96 SW21G32   29.26R
RENSSELAER +   DRIZZLE   37  37 100 SW21G36   29.25R
VALPARAISO     LGT RAIN  43  42  97 W23G33    29.16R

$$

LMZ046-743>745-241600-
SOUTHERN LAKE MICHIGAN

STATION/POSITION TIME  TEMP WIND        PRES
                       AIR  DIR/SP/G
                 (UTC) (F)  (DEG/KT/KT) (MB)
MICHIGAN CITY    1500   44                N/A

$$

INZ004-005-014>016-021>024-241600-
NORTH CENTRAL INDIANA

CITY           SKY/WX    TMP DP  RH WIND       PRES   REMARKS
ELKHART        CLOUDY    54  54 100 S6        29.08
GOSHEN         LGT RAIN  63  51  65 S17       29.08S
LOGANSPORT +   DRIZZLE   41  41 100 SW36G44   29.26R
PERU/GRISSOM   CLOUDY    43  43 100 SW31G43   29.25R
ROCHESTER +    CLOUDY    46  43  87 SW23G44   29.21R FOG
SOUTH BEND     LGT RAIN  51  50  96 W13       29.09R FOG
WARSAW +       CLOUDY    54  50  87 SW15G24   29.11R

$$

INZ006>009-017-018-025>027-241600-
NORTHEAST INDIANA

CITY           SKY/WX    TMP DP  RH WIND       PRES   REMARKS
ANGOLA *+      CLOUDY    55  45  67 SW21      29.10S
AUBURN +       CLOUDY    55  50  82 SW14G21   29.14R
FORT WAYNE     CLOUDY    55  50  83 SW28G40   29.17R
HUNTINGTON +   CLOUDY    52  47  84 SW28G40   29.20R

$$

INZ028-029-035-036-043>045-051>053-241600-
WEST CENTRAL INDIANA

CITY           SKY/WX    TMP DP  RH WIND       PRES   REMARKS
GREENCASTLE +  CLOUDY    39  36  87 W18G29    29.41R FOG
LAFAYETTE      LGT RAIN  38  35  89 W23G32    29.32R
TERRE HAUTE    LGT RAIN  39  32  76 W24G40    29.49R

$$

INZ030>032-037>040-046>048-054>057-064-065-241600-
CENTRAL INDIANA

CITY           SKY/WX    TMP DP  RH WIND       PRES   REMARKS
ANDERSON       CLOUDY    50  43  76 SW17G40   29.30R
CP ATTERBURY + CLOUDY    46  43  87 W17G35    29.40R
COLUMBUS       CLOUDY    48  46  93 MISG      29.40R
FRANKFORT +    CLOUDY    41  41 100 SW31G41   29.34R
GREENWOOD *+   CLOUDY    45  39  81 W20G31    29.38
INDIANAPOLIS   CLOUDY    42  39  89 SW35G40   29.36R
-EAGLE CREEK   CLOUDY    43  39  86 W15G26    29.35R
KOKOMO *+      CLOUDY    45  37  76 SW32G46   29.28R
MARION +       CLOUDY    46  43  88 W30G40    29.28R
MT COMFORT *+  CLOUDY    46  46 100 W28G37    29.34R
SHELBYVILLE    CLOUDY    49  44  83 W28G37    29.36R
ZIONSVILLE +   CLOUDY    42  37  80 SW24G35   29.34R

$$

INZ033-034-041-042-049-050-058-059-241600-
EAST CENTRAL INDIANA

CITY           SKY/WX    TMP DP  RH WIND       PRES   REMARKS
MUNCIE         LGT RAIN  55  50  83 W25G38    29.23R

$$

INZ060-061-067>069-081>083-085>088-241600-
SOUTHWEST INDIANA

CITY           SKY/WX    TMP DP  RH WIND       PRES   REMARKS
EVANSVILLE     CLOUDY    44  35  70 W23G30    29.63R
HUNTINGBURG *+ CLOUDY    45  37  76 W31G43    29.59R
WASHINGTON +   CLOUDY    40  37  89 W26G38    29.57R

$$

INZ062-063-066-070>080-084-089>092-241600-
SOUTH CENTRAL AND SOUTHEAST INDIANA

CITY           SKY/WX    TMP DP  RH WIND       PRES   REMARKS
BLOOMINGTON    CLOUDY    43  40  89 W22G32    29.46R

$$



USA.gov is the U.S. government's official web portal to all federal, state and local government web resources and services.